TimeEST,TemperatureF,Dew PointF,Humidity,Sea Level PressureIn,VisibilityMPH,Wind Direction,Wind SpeedMPH,Gust SpeedMPH,PrecipitationIn,Events,Conditions,WindDirDegrees,DateUTC
12:15 AM,10.4,3.7,74,30.01,7.0,NW,9.2,-,N/A,Snow,Light Snow,320,2014-02-06 05:15:00
12:35 AM,10.2,3.2,73,30.02,5.0,NNW,11.5,-,N/A,Snow,Light Snow,330,2014-02-06 05:35:00
12:55 AM,9.3,1.9,72,30.03,7.0,NNW,10.4,-,N/A,Snow,Light Snow,330,2014-02-06 05:55:00
1:15 AM,9.1,1.9,73,30.04,7.0,NW,9.2,16.1,N/A,Snow,Light Snow,320,2014-02-06 06:15:00
1:35 AM,8.6,1.0,71,30.05,10.0,North,5.8,-,N/A,,Overcast,350,2014-02-06 06:35:00
1:55 AM,7.5,0.5,73,30.06,10.0,North,5.8,-,N/A,,Overcast,350,2014-02-06 06:55:00
2:15 AM,7.3,-0.2,71,30.08,10.0,NNW,9.2,-,N/A,,Overcast,330,2014-02-06 07:15:00
2:35 AM,6.1,-1.3,72,30.09,10.0,WNW,6.9,-,N/A,,Mostly Cloudy,300,2014-02-06 07:35:00
2:55 AM,3.7,-4.2,70,30.09,10.0,NW,6.9,-,N/A,,Scattered Clouds,320,2014-02-06 07:55:00
3:15 AM,2.5,-5.3,70,30.11,10.0,NNW,6.9,-,N/A,,Clear,330,2014-02-06 08:15:00
3:35 AM,0.7,-7.2,69,30.11,10.0,NNW,6.9,-,N/A,,Clear,330,2014-02-06 08:35:00
3:55 AM,1.6,-5.1,74,30.12,10.0,WNW,4.6,-,N/A,,Clear,300,2014-02-06 08:55:00
4:15 AM,2.1,-5.1,72,30.13,10.0,WNW,4.6,-,N/A,,Clear,300,2014-02-06 09:15:00
4:35 AM,1.4,-5.8,72,30.14,10.0,WNW,4.6,-,N/A,,Clear,300,2014-02-06 09:35:00
4:55 AM,1.4,-6.0,71,30.15,10.0,WNW,3.5,-,N/A,,Clear,300,2014-02-06 09:55:00
5:15 AM,-6.9,-15.3,67,30.16,10.0,Calm,Calm,-,N/A,,Clear,0,2014-02-06 10:15:00
5:35 AM,-0.6,-6.0,78,30.16,10.0,Calm,Calm,-,N/A,,Clear,0,2014-02-06 10:35:00
5:55 AM,-3.1,-9.9,73,30.17,10.0,Calm,Calm,-,N/A,,Clear,0,2014-02-06 10:55:00
6:15 AM,-7.8,-13.4,77,30.18,10.0,Calm,Calm,-,N/A,,Clear,0,2014-02-06 11:15:00
6:35 AM,-1.1,-6.7,77,30.18,10.0,Calm,Calm,-,N/A,,Clear,0,2014-02-06 11:35:00
6:55 AM,-3.8,-10.1,74,30.19,10.0,SW,4.6,-,N/A,,Clear,220,2014-02-06 11:55:00
7:15 AM,-3.3,-9.6,74,30.20,10.0,SSW,5.8,-,N/A,,Clear,210,2014-02-06 12:15:00
7:35 AM,-3.5,-9.6,75,30.21,10.0,South,3.5,-,N/A,,Clear,190,2014-02-06 12:35:00
7:55 AM,-3.3,-10.1,73,30.21,10.0,SW,4.6,-,N/A,,Clear,220,2014-02-06 12:55:00
8:15 AM,-4.5,-11.4,72,30.21,10.0,Calm,Calm,-,N/A,,Clear,0,2014-02-06 13:15:00
8:35 AM,-3.1,-9.6,74,30.22,10.0,SSW,5.8,-,N/A,,Clear,210,2014-02-06 13:35:00
8:55 AM,-3.3,-9.6,74,30.22,10.0,Calm,Calm,-,N/A,,Clear,0,2014-02-06 13:55:00
9:15 AM,0.5,-6.3,73,30.23,10.0,SSW,3.5,-,N/A,,Clear,210,2014-02-06 14:15:00
9:35 AM,2.5,-5.1,71,30.23,10.0,SSE,3.5,-,N/A,,Clear,160,2014-02-06 14:35:00
9:55 AM,4.8,-5.3,63,30.23,10.0,SE,3.5,-,N/A,,Clear,130,2014-02-06 14:55:00
10:15 AM,4.8,-5.1,64,30.22,10.0,Calm,Calm,-,N/A,,Clear,0,2014-02-06 15:15:00
10:35 AM,5.4,-4.5,64,30.22,10.0,Calm,Calm,-,N/A,,Clear,0,2014-02-06 15:35:00
10:55 AM,6.6,-4.2,61,30.23,10.0,Calm,Calm,-,N/A,,Scattered Clouds,0,2014-02-06 15:55:00
11:15 AM,9.3,-2.2,60,30.22,10.0,Calm,Calm,-,N/A,,Scattered Clouds,0,2014-02-06 16:15:00
11:35 AM,10.4,-1.8,58,30.21,10.0,South,3.5,-,N/A,,Mostly Cloudy,190,2014-02-06 16:35:00
11:55 AM,11.7,-1.3,56,30.20,10.0,Calm,Calm,-,N/A,,Overcast,0,2014-02-06 16:55:00
12:15 PM,12.0,-1.1,56,30.18,10.0,Calm,Calm,-,N/A,,Overcast,0,2014-02-06 17:15:00
12:35 PM,12.2,-0.8,56,30.18,10.0,Calm,Calm,-,N/A,,Scattered Clouds,0,2014-02-06 17:35:00
12:55 PM,12.2,-0.6,57,30.17,10.0,Calm,Calm,-,N/A,,Mostly Cloudy,0,2014-02-06 17:55:00
1:15 PM,13.1,-0.4,55,30.17,10.0,Calm,Calm,-,N/A,,Mostly Cloudy,0,2014-02-06 18:15:00
1:35 PM,13.8,0.3,55,30.16,10.0,North,3.5,-,N/A,,Scattered Clouds,10,2014-02-06 18:35:00
1:55 PM,14.7,0.5,53,30.15,10.0,NNE,3.5,-,N/A,,Scattered Clouds,30,2014-02-06 18:55:00
2:15 PM,13.5,0.7,57,30.15,10.0,NNE,4.6,-,N/A,,Clear,30,2014-02-06 19:15:00
2:35 PM,11.7,0.7,61,30.15,10.0,Calm,Calm,-,N/A,,Clear,0,2014-02-06 19:35:00
2:55 PM,12.9,0.9,59,30.15,10.0,NNE,4.6,-,N/A,,Clear,30,2014-02-06 19:55:00
3:15 PM,12.2,1.9,64,30.15,7.0,North,4.6,-,N/A,,Clear,360,2014-02-06 20:15:00
3:35 PM,11.7,0.5,61,30.15,10.0,NNE,4.6,-,N/A,,Clear,30,2014-02-06 20:35:00
3:55 PM,12.0,1.2,62,30.15,10.0,Calm,Calm,-,N/A,,Clear,0,2014-02-06 20:55:00
4:15 PM,10.9,0.3,62,30.15,10.0,Calm,Calm,-,N/A,,Clear,0,2014-02-06 21:15:00
4:35 PM,10.4,0.3,64,30.15,10.0,Calm,Calm,-,N/A,,Clear,0,2014-02-06 21:35:00
4:55 PM,11.5,0.3,61,30.15,10.0,Calm,Calm,-,N/A,,Clear,0,2014-02-06 21:55:00
5:15 PM,10.6,1.9,68,30.14,10.0,Calm,Calm,-,N/A,,Clear,0,2014-02-06 22:15:00
5:35 PM,7.9,2.7,79,30.14,10.0,Calm,Calm,-,N/A,,Clear,0,2014-02-06 22:35:00
5:55 PM,12.9,2.1,62,30.14,10.0,South,4.6,-,N/A,,Scattered Clouds,170,2014-02-06 22:55:00
6:15 PM,13.5,2.8,63,30.14,10.0,South,5.8,-,N/A,,Overcast,170,2014-02-06 23:15:00
6:35 PM,12.0,2.3,65,30.14,10.0,SE,5.8,-,N/A,,Overcast,140,2014-02-06 23:35:00
6:55 PM,11.7,2.7,67,30.14,10.0,SE,4.6,-,N/A,,Mostly Cloudy,140,2014-02-06 23:55:00
7:15 PM,11.3,3.7,72,30.13,10.0,Calm,Calm,-,N/A,,Mostly Cloudy,0,2014-02-07 00:15:00
7:35 PM,11.3,3.2,70,30.13,10.0,Calm,Calm,-,N/A,,Scattered Clouds,0,2014-02-07 00:35:00
7:55 PM,9.1,1.6,71,30.13,10.0,Calm,Calm,-,N/A,,Scattered Clouds,0,2014-02-07 00:55:00
8:15 PM,7.5,1.0,75,30.12,10.0,SSE,3.5,-,N/A,,Clear,160,2014-02-07 01:15:00
8:35 PM,10.4,2.7,71,30.11,10.0,South,3.5,-,N/A,,Clear,180,2014-02-07 01:35:00
8:55 PM,7.7,1.0,74,30.10,10.0,Calm,Calm,-,N/A,,Mostly Cloudy,0,2014-02-07 01:55:00
9:15 PM,9.9,2.5,72,30.11,10.0,South,3.5,-,N/A,,Overcast,190,2014-02-07 02:15:00
9:35 PM,7.7,1.2,75,30.10,10.0,South,5.8,-,N/A,,Mostly Cloudy,170,2014-02-07 02:35:00
9:55 PM,9.3,1.9,72,30.10,10.0,South,4.6,-,N/A,,Scattered Clouds,190,2014-02-07 02:55:00
10:15 PM,9.1,1.8,72,30.10,10.0,Calm,Calm,-,N/A,,Mostly Cloudy,0,2014-02-07 03:15:00
10:35 PM,8.8,1.9,74,30.10,7.0,Calm,Calm,-,N/A,,Overcast,0,2014-02-07 03:35:00
10:55 PM,6.3,-0.9,72,30.10,7.0,Calm,Calm,-,N/A,,Overcast,0,2014-02-07 03:55:00
11:15 PM,8.1,2.1,77,30.09,5.0,SW,4.6,-,N/A,,Haze,220,2014-02-07 04:15:00
11:35 PM,7.5,1.8,77,30.08,10.0,SSW,4.6,-,N/A,,Overcast,200,2014-02-07 04:35:00
11:55 PM,8.4,3.0,79,30.08,5.0,SW,3.5,-,N/A,,Haze,220,2014-02-07 04:55:00